Flag for Taiwan Weather past 2 weeks in Taichung, Taiwan

Now
82 °F

Passing clouds.


Feels Like: 92 °F
Forecast: 83 / 92 °F
Wind: 1 mph from Southwest

Location: Chiang Kai Shek

Current Time: Jul 7, 2015 at 4:57:38 AM

Latest Report: Jul 7, 2015 at 4:00 AM


Visibility: 4 mi

Pressure: 29.47 "Hg

Humidity: 89%

Dew point: 79 °F

Location of TaichungLocation

Historic Weather in Taichung — Graph

°F

Taichung temperature yesterday

Maximum temperature yesterday: 95 °F (at 10:30 AM)
Minimum temperature yesterday: 84 °F (at 2:00 AM)
Average temperature yesterday: 88 °F

Past Weeks' High & Low Weather Summary

 TemperatureHumidityPressure
High95 °F (Jun 28, 11:30 AM)100% (Jun 22, 10:30 PM)29.83 "Hg (Jun 22, 10:30 PM)
Low77 °F (Jun 23, 5:30 PM)49% (Jul 2, 4:30 PM)29.45 "Hg (Jul 6, 1:30 PM)
Average87 °F72%29.67 "Hg
* Reported Jun 22 3:00 AM — Jul 7 3:30 AM, Taichung, Weather by CustomWeather, © 2015

Note: Actual official high and low records may vary slightly from our data, if they occured in-between our weather recording intervals... More about our weather records

Advertising

Taichung weather history for previous 24 hours

 ConditionsComfort  
Time TempWeatherWind HumidityBarometerVisibility
3:30 AM
Tue, Jul 7
82 °FPassing clouds.2 mph89%29.47 "Hg4 mi
3:00 AM82 °FPassing clouds.3 mph89%29.47 "HgN/A
2:30 AM82 °FPassing clouds.3 mph89%29.47 "HgN/A
2:00 AM82 °FPassing clouds.5 mph89%29.47 "HgN/A
1:30 AM84 °FPassing clouds.3 mph84%29.50 "HgN/A
1:00 AM84 °FPassing clouds.2 mph84%29.50 "HgN/A
12:30 AM84 °FPassing clouds.1 mph79%29.50 "HgN/A
12:00 AM84 °FPassing clouds.5 mph79%29.50 "HgN/A
11:30 PM
Mon, Jul 6
84 °FPassing clouds.2 mph79%29.50 "HgN/A
11:00 PM84 °FPassing clouds.2 mph79%29.50 "HgN/A
10:30 PM86 °FPassing clouds.2 mph70%29.53 "HgN/A
10:00 PM86 °FPassing clouds.3 mph70%29.53 "HgN/A
9:30 PM86 °FPassing clouds.3 mph70%29.53 "HgN/A
9:00 PM86 °FPassing clouds.3 mph70%29.50 "HgN/A
8:30 PM86 °FPassing clouds.5 mph70%29.50 "HgN/A
8:00 PM86 °FPassing clouds.5 mph70%29.50 "HgN/A
7:30 PM86 °FPassing clouds.2 mph75%29.50 "HgN/A
7:00 PM86 °FPassing clouds.5 mph75%29.50 "HgN/A
6:30 PM86 °FPartly sunny.8 mph79%29.47 "HgN/A
6:00 PM86 °FPartly sunny.8 mph79%29.47 "HgN/A
5:30 PM88 °FPartly sunny.9 mph66%29.47 "HgN/A
5:00 PM90 °FBroken clouds.9 mph63%29.47 "HgN/A
4:30 PM91 °FBroken clouds.10 mph59%29.47 "HgN/A
4:00 PM91 °FPartly sunny.8 mph59%29.45 "HgN/A
3:30 PM91 °FPartly sunny.9 mph63%29.45 "HgN/A
3:00 PM91 °FBroken clouds.12 mph67%29.45 "HgN/A
2:30 PM93 °FBroken clouds.14 mph59%29.45 "HgN/A
2:00 PM93 °FBroken clouds.14 mph63%29.45 "HgN/A
1:30 PM93 °FBroken clouds.14 mph63%29.45 "HgN/A
1:00 PM93 °FBroken clouds.13 mph63%29.47 "HgN/A
12:30 PM93 °FPartly sunny.13 mph63%29.47 "HgN/A
12:00 PM93 °FPartly sunny.13 mph63%29.47 "HgN/A
11:30 AM93 °FPartly sunny.14 mph63%29.47 "HgN/A
11:00 AM95 °FPartly sunny.9 mph60%29.47 "HgN/A
10:30 AM95 °FBroken clouds.9 mph53%29.47 "HgN/A
10:00 AM93 °FScattered clouds.7 mph56%29.47 "HgN/A
9:30 AM91 °FScattered clouds.9 mph59%29.47 "HgN/A
9:00 AM93 °FScattered clouds.12 mph56%29.47 "HgN/A
8:30 AM91 °FScattered clouds.12 mph59%29.50 "HgN/A
8:00 AM90 °FScattered clouds.10 mph63%29.47 "HgN/A
7:30 AM90 °FPassing clouds.14 mph63%29.47 "HgN/A
7:00 AM88 °FScattered clouds.13 mph66%29.50 "HgN/A
6:30 AM88 °FScattered clouds.14 mph66%29.47 "HgN/A
6:00 AM86 °FScattered clouds.9 mph70%29.50 "HgN/A
5:30 AM86 °FScattered clouds.10 mph66%29.50 "HgN/A
5:00 AM84 °FPassing clouds.9 mph74%29.50 "HgN/A
4:30 AM84 °FPassing clouds.6 mph74%29.50 "HgN/A
4:00 AM84 °FPartly cloudy.6 mph74%29.50 "HgN/A
Weather by CustomWeather, © 2015

See weather overviewHow to use our weather pages